weather.gov     
National Weather Service

Regional Weather Roundup
NWS Homepage
This page is being discontinued on March 12, 2014.
The same data is available at this site. Please update your bookmarks.
Thank you, and we apologize for the inconvenience.
Please send an email to SR-SRH.Webmaster@noaa.gov with any concerns.


Current Version
Previous Version:    01  02  03  04  05  06  07  08  09  10  11  12  13  14  15  16  17  18  19  20  21  22  23  24  25  26  27  28  29  30  
   31  32  33  34  35  36  37  38  39  40  41  42  43  44  45  46  47  48  49  50  51  52  53  54  55  56  57  58  59  60  
[Printable]
376
ASUS44 KFWD 220015
RWRTX
NORTH TEXAS HOURLY WEATHER ROUNDUP
NATIONAL WEATHER SERVICE FORT WORTH TX
700 PM CDT TUE OCT 21 2014

NOTE: "FAIR" INDICATES FEW OR NO CLOUDS BELOW 12,000 FEET WITH NO
SIGNIFICANT WEATHER AND/OR OBSTRUCTIONS TO VISIBILITY.

TXZ118-119-220100-
DALLAS/FORT WORTH METROPLEX

CITY           SKY/WX    TMP DP  RH WIND       PRES   REMARKS
DFW AIRPORT    PTCLDY    74  57  55 SE8       30.03R
6HR MIN TEMP:  74; 6HR MAX TEMP:  82;

DALLAS LOVE    PTCLDY    77  58  51 S8        30.03R
6HR MIN TEMP:  77; 6HR MAX TEMP:  82;

FTW MEACHAM    CLEAR     77  54  44 E9        30.01S
6HR MIN TEMP:  77; 6HR MAX TEMP:  83;

DAL-EXECUTIVE  CLEAR     74  58  57 SE6       30.03R
6HR MIN TEMP:  74; 6HR MAX TEMP:  83;

FTW-ALLIANCE   PTCLDY    73  54  51 SE7       30.02S
6HR MIN TEMP:  73; 6HR MAX TEMP:  83;

FTW-NAS-JRB    CLEAR     79  49  34 E6        30.05F
6HR MIN TEMP:  79; 6HR MAX TEMP:  85;

FTW-SPINKS     CLEAR     73  54  49 E7        30.04R
ARLINGTON      CLEAR     76  56  49 E6        30.03R
6HR MIN TEMP:  76; 6HR MAX TEMP:  82;

GRAND PRAIRIE  CLEAR     75  59  57 MISG      30.04R
ADDISON        PTCLDY    77  55  47 E7        30.04R
MESQUITE       CLEAR     73  57  56 CALM      30.03R
LANCASTER      CLEAR     74  55  52 CALM      30.04R
6HR MIN TEMP:  74; 6HR MAX TEMP:  81;

$$

TXZ091>094-102>105-117-120-121-131>134-220100-
NORTH CENTRAL TEXAS

CITY           SKY/WX    TMP DP  RH WIND       PRES   REMARKS
SHRMAN/DENISON CLEAR     74  63  67 E6        30.05R
6HR MIN TEMP:  74; 6HR MAX TEMP:  83;

GAINESVILLE    CLEAR     72  57  59 S5        30.06R
6HR MIN TEMP:  72; 6HR MAX TEMP:  80;

BOWIE          CLEAR     71  52  51 CALM      30.04R
6HR MIN TEMP:  71; 6HR MAX TEMP:  82;

BRIDGEPORT     CLEAR     74  53  48 SE3       30.04S
6HR MIN TEMP:  74; 6HR MAX TEMP:  82;

DECATUR        CLEAR     73  47  40 CALM      30.04S
6HR MIN TEMP:  73; 6HR MAX TEMP:  81;

DENTON         CLEAR     74  57  55 SE6       30.03R
6HR MIN TEMP:  74; 6HR MAX TEMP:  81;

MCKINNEY       CLEAR     74  59  59 SE6       30.03S
6HR MIN TEMP:  74; 6HR MAX TEMP:  81;

GREENVILLE     CLEAR     72  61  68 CALM      30.04S
ROCKWALL       CLEAR     74  60  63 E6        30.03R
6HR MIN TEMP:  74; 6HR MAX TEMP:  81;

TERRELL        CLEAR     76  60  57 E5        30.04R
6HR MIN TEMP:  76; 6HR MAX TEMP:  82;

WAXAHACHIE     CLEAR     73  59  62 CALM      30.04R
6HR MIN TEMP:  73; 6HR MAX TEMP:  82;

CLEBURNE       CLEAR     73  52  46 E6        30.04S
GRANBURY       CLEAR     76  53  44 SE3       30.03S
6HR MIN TEMP:  76; 6HR MAX TEMP:  83;

$$

TXZ083>090-098>101-113>116-127>130-139>142-154-155-220100-
WESTERN NORTH TEXAS

CITY           SKY/WX    TMP DP  RH WIND       PRES   REMARKS
WICHITA FALLS  CLEAR     75  52  44 SE9       30.01S
6HR MIN TEMP:  75; 6HR MAX TEMP:  83;

WF-KICKAPOO    CLEAR     75  52  44 SE5       30.02S
6HR MIN TEMP:  75; 6HR MAX TEMP:  83;

VERNON         CLEAR     77  50  38 SE7       30.02R
ABILENE        PTCLDY    75  52  44 SE8       30.03S
6HR MIN TEMP:  75; 6HR MAX TEMP:  81;

ABILENE-DYESS  PTCLDY    74  53  46 SE8       30.02R
6HR MIN TEMP:  74; 6HR MAX TEMP:  81;

BRECKENRIDGE   CLEAR     76  48  37 SE6       30.02R HAZE
6HR MIN TEMP:  76; 6HR MAX TEMP:  83;

GRAHAM         CLEAR     76  54  46 E5        30.00S
6HR MIN TEMP:  76; 6HR MAX TEMP:  84;

MINERAL WELLS  CLEAR     74  50  42 SE7       30.01S
6HR MIN TEMP:  74; 6HR MAX TEMP:  83;

STEPHENVILLE   CLEAR     73  52  48 E6        30.06S
6HR MIN TEMP:  73; 6HR MAX TEMP:  81;

COMANCHE       PTCLDY    72  52  49 SE5       30.04R
6HR MIN TEMP:  72; 6HR MAX TEMP:  82;

BROWNWOOD      PTCLDY    72  50  46 SE6       30.03R
COLEMAN        PTCLDY    75  53  46 S6        30.03S
6HR MIN TEMP:  75; 6HR MAX TEMP:  81;

BRADY          CLEAR     73  54  49 SE6       30.03S
$$

TXZ143>147-156>162-174-175-220100-
CENTRAL TEXAS

CITY           SKY/WX    TMP DP  RH WIND       PRES   REMARKS
WACO           CLEAR     74  54  49 E5        30.01S
6HR MIN TEMP:  74; 6HR MAX TEMP:  83;

WACO-TSTC      CLEAR     73  57  56 E3        30.01S
WACO-MCGREGOR  CLEAR     75  48  38 SE5       30.03R
6HR MIN TEMP:  75; 6HR MAX TEMP:  82;

HILLSBORO      CLEAR     74  55  50 E6        30.03R
6HR MIN TEMP:  74; 6HR MAX TEMP:  82;

CORSICANA      CLEAR     75  59  57 E5        30.04R
6HR MIN TEMP:  75; 6HR MAX TEMP:  81;

MEXIA          PTCLDY    73  60  61 CALM      30.02S
6HR MIN TEMP:  73; 6HR MAX TEMP:  80;

HEARNE         CLEAR     73  60  63 CALM      30.02R
6HR MIN TEMP:  73; 6HR MAX TEMP:  82;

CAMERON        CLEAR     75  57  54 CALM      30.01S
6HR MIN TEMP:  75; 6HR MAX TEMP:  82;

TEMPLE         PTCLDY    72  48  43 E6        30.01S
6HR MIN TEMP:  72; 6HR MAX TEMP:  81;

KILLEEN        PTCLDY    75  45  33 E8        30.02S
KILLEEN-SKYLRK PTCLDY    73  46  38 SE3       30.02S
6HR MIN TEMP:  73; 6HR MAX TEMP:  79;

FORT HOOD      PTCLDY    76  48  37 CALM      30.02S
6HR MIN TEMP:  76; 6HR MAX TEMP:  83;

GATESVILLE     PTCLDY    73  50  43 CALM      30.04S
HAMILTON       CLEAR     73  49  42 E13       30.04S
6HR MIN TEMP:  73; 6HR MAX TEMP:  82;

LAMPASAS       PTCLDY    71  55  56 CALM      30.03R
6HR MIN TEMP:  71; 6HR MAX TEMP:  81;

$$

TXZ095>097-106>112-122>126-135>138-148>153-164>167-220100-
EAST TEXAS

CITY           SKY/WX    TMP DP  RH WIND       PRES   REMARKS
PARIS          CLEAR     73  57  56 S3        30.05S
6HR MIN TEMP:  73; 6HR MAX TEMP:  79;

SULPHUR SPRNGS CLEAR     74  60  61 SE3       30.06S
6HR MIN TEMP:  74; 6HR MAX TEMP:  81;

MOUNT PLEASANT CLEAR     72  63  74 CALM      30.05S
6HR MIN TEMP:  72; 6HR MAX TEMP:  80;

MINEOLA        CLEAR     70  64  83 CALM      30.05R
TYLER          CLEAR     75  61  61 E5        30.03S
6HR MIN TEMP:  75; 6HR MAX TEMP:  82;

LONGVIEW       CLEAR     70  64  81 CALM      30.02R
6HR MIN TEMP:  70; 6HR MAX TEMP:  81;

MARSHALL       CLEAR     72  66  82 CALM      30.05R
6HR MIN TEMP:  72; 6HR MAX TEMP:  81;

ATHENS         CLEAR     72  61  68 CALM      30.02S
PALESTINE      CLEAR     74  63  69 CALM      30.03S
JACKSONVILLE   CLEAR     73  62  69 CALM      30.06R
HENDERSON      CLEAR     69  64  82 CALM      30.04S
6HR MIN TEMP:  69; 6HR MAX TEMP:  81;

NACOGDOCHES    CLEAR     70  63  78 E3        30.03R
6HR MIN TEMP:  70; 6HR MAX TEMP:  81;

LUFKIN         CLEAR     74  64  71 CALM      30.01S
6HR MIN TEMP:  74; 6HR MAX TEMP:  83;

$$

SUPPLEMENTAL OBSERVATIONS (CENTRAL)

CITY           SKY/WX    TMP DP  RH WIND       PRES   REMARKS
LAKE TEXOMA      N/A     75  61  60 SE2         N/A
CADDO GRASSLND   N/A    N/A N/A N/A CALM        N/A
PAT MAYSE LAKE   N/A     73  63  68 SE2         N/A
GREENVILLE       N/A     73  59  60 SE2         N/A
CEDAR HILL       N/A     72  57  60 CALM        N/A
ATHENS           N/A     73  59  60 NE2         N/A
PALESTINE        N/A     70  64  83 CALM        N/A
MCGREGOR         N/A     73  48  40 SE2         N/A
TEMPLE           N/A     73  50  43 E3          N/A
$$

SUPPLEMENTAL OBSERVATIONS (WEST)

CITY           SKY/WX    TMP DP  RH WIND       PRES   REMARKS




U.S. Dept. of Commerce
NOAA National Weather Service
1325 East West Highway
Silver Spring, MD 20910
E-mail: w-nws.webmaster@noaa.gov
Page last modified: May 16, 2007
NATIONAL WEATHER SERVICE: for Safety, for Work, for Fun - FOR LIFE